Anchorage, AK

10:38 PM AKDT on September 27, 2016 (GMT -0800)
Lake Hood

Weather History for PALH - August, 2013

Change the Weather History Date:

Monday, August 19, 2013

  Actual Average Record
Temperature  
Mean Temperature 55 °F -  
Max Temperature 57 °F 62 °F 72 °F (2004)
Min Temperature 53 °F 48 °F 39 °F (1998)
Degree Days  
Heating Degree Days 10    
Growing Degree Days 5 (Base 50)    
Moisture  
Dew Point 51 °F    
Average Humidity 83    
Maximum Humidity 94    
Minimum Humidity 65    
Precipitation  
Precipitation 0.44 in - - ()
Sea Level Pressure  
Sea Level Pressure 29.71 in    
Wind  
Wind Speed 6 mph (SSE)    
Max Wind Speed 12 mph    
Max Gust Speed 22 mph    
Visibility 8 miles    
Events Rain    
Averages and records for this station are not official NWS values.
T = Trace of Precipitation, MM = Missing Value Source: NWS Daily Summary

Daily Weather History Graph

Daily Weather History Graph

Search for Another Location

Airport or City:

Trip Planner

Search our weather history database for the weather conditions in past years. The results will help you decide how hot, cold, wet, or windy it might be!

Date:

Astronomy

Aug. 19, 2013 Rise Set
Actual Time 6:19 AM AKDT 9:45 PM AKDT
Civil Twilight 5:27 AM AKDT 10:36 PM AKDT
Nautical Twilight 4:11 AM AKDT 11:51 PM AKDT
Astronomical Twilight 2:35 AM AKDT 1:30 AM AKDT
Moon 8:38 PM AKDT (8/19) 4:42 AM AKDT (8/19)
Length of Visible Light 17h 08m
Length of Day
15h 25m
Waxing Gibbous, 98% of the Moon is Illuminated
Aug 19
Waxing Gibbous
Aug 20
Full
Aug 28
Last Quarter
Sep 5
New
Sep 12
First Quarter

Hourly Weather History & Observations

Time (AKDT) Temp. Dew Point Humidity Pressure Visibility Wind Dir Wind Speed Gust Speed Precip Events Conditions
12:53 AM 57.0 °F 51.1 °F 81% 29.67 in 10.0 mi SSE 4.6 mph - N/A   Partly Cloudy
1:53 AM 57.9 °F 46.0 °F 65% 29.67 in 10.0 mi SSE 5.8 mph - N/A   Mostly Cloudy
2:53 AM 57.9 °F 46.0 °F 65% 29.67 in 10.0 mi South 5.8 mph - N/A   Overcast
3:53 AM 57.9 °F 46.0 °F 65% 29.67 in 10.0 mi South 8.1 mph - N/A   Overcast
4:53 AM 57.9 °F 46.0 °F 65% 29.67 in 10.0 mi SSE 5.8 mph - N/A   Overcast
5:53 AM 57.9 °F 46.9 °F 67% 29.67 in 10.0 mi SSE 8.1 mph 16.1 mph N/A   Overcast
6:53 AM 55.0 °F 48.9 °F 80% 29.67 in 10.0 mi SSE 9.2 mph - 0.05 in   Overcast
7:53 AM 55.0 °F 50.0 °F 83% 29.68 in 6.0 mi South 5.8 mph - 0.00 in   Haze
8:10 AM 53.6 °F 50.0 °F 88% 29.68 in 2.5 mi South 9.2 mph - 0.03 in Rain Rain
8:24 AM 53.6 °F 50.0 °F 88% 29.68 in 1.5 mi SSE 9.2 mph 16.1 mph 0.11 in Rain Rain
8:34 AM 53.6 °F 50.0 °F 88% 29.68 in 3.0 mi South 5.8 mph - 0.13 in Rain Light Rain
8:53 AM 55.0 °F 48.9 °F 80% 29.68 in 8.0 mi South 10.4 mph 18.4 mph 0.15 in   Overcast
9:29 AM 55.4 °F 51.8 °F 88% 29.69 in 10.0 mi SSE 8.1 mph - 0.00 in Rain Light Rain
9:45 AM 55.4 °F 48.2 °F 77% 29.69 in 8.0 mi South 8.1 mph - 0.01 in Rain Light Rain
9:53 AM 55.0 °F 50.0 °F 83% 29.69 in 10.0 mi SE 5.8 mph - 0.01 in   Overcast
10:53 AM 55.0 °F 50.0 °F 83% 29.70 in 9.0 mi South 10.4 mph 21.9 mph N/A   Overcast
11:50 AM 55.4 °F 51.8 °F 88% 29.70 in 9.0 mi Calm Calm - 0.03 in   Overcast
11:53 AM 55.9 °F 52.0 °F 87% 29.71 in 6.0 mi Calm Calm - 0.03 in Rain Light Rain
12:17 PM 55.4 °F 53.6 °F 94% 29.71 in 2.5 mi Calm Calm - 0.05 in Rain Rain
12:30 PM 55.4 °F 53.6 °F 94% 29.71 in 5.0 mi Calm Calm - 0.05 in Rain Light Rain
12:43 PM 55.4 °F 53.6 °F 94% 29.71 in 1.8 mi Calm Calm - 0.09 in Rain Rain
12:53 PM 55.9 °F 53.1 °F 90% 29.72 in 3.0 mi NNW 3.5 mph - 0.09 in Rain Light Rain
1:16 PM 55.4 °F 53.6 °F 94% 29.71 in 6.0 mi North 4.6 mph - 0.00 in   Overcast
1:53 PM 55.9 °F 51.1 °F 84% 29.72 in 10.0 mi ESE 3.5 mph - 0.00 in   Overcast
2:53 PM 55.9 °F 51.1 °F 84% 29.73 in 8.0 mi South 11.5 mph 16.1 mph 0.02 in Rain Light Rain
3:24 PM 55.4 °F 50.0 °F 82% 29.73 in 7.0 mi South 11.5 mph 16.1 mph 0.01 in Rain Light Rain
3:53 PM 55.9 °F 52.0 °F 87% 29.73 in 3.0 mi Calm Calm - 0.05 in Rain Rain
4:53 PM 57.0 °F 51.1 °F 81% 29.74 in 10.0 mi South 6.9 mph 16.1 mph 0.00 in Rain Light Rain
5:53 PM 57.0 °F 50.0 °F 77% 29.74 in 10.0 mi South 9.2 mph 18.4 mph 0.02 in   Overcast
6:53 PM 55.9 °F 53.1 °F 90% 29.74 in 10.0 mi Calm Calm - 0.00 in Rain Light Rain
7:53 PM 55.9 °F 53.1 °F 90% 29.75 in 10.0 mi NNE 3.5 mph - 0.00 in   Overcast
8:53 PM 55.9 °F 52.0 °F 87% 29.75 in 10.0 mi NE 3.5 mph - 0.01 in Rain Light Rain
9:53 PM 55.9 °F 53.1 °F 90% 29.76 in 10.0 mi Calm Calm - 0.01 in   Overcast
10:53 PM 55.0 °F 53.1 °F 93% 29.76 in 10.0 mi NNW 3.5 mph - 0.00 in Rain Light Rain
11:53 PM 55.0 °F 52.0 °F 89% 29.77 in 10.0 mi Calm Calm - 0.00 in   Overcast